Location: Arbon
(43.0005°N, 0.7472°E)
Time: 07:15:21
(UTC+00:00)

Vanguard 1 - Pass Details

Date: 05 December 2020
Orbit: 648 x 3834 km, 34.3° (Epoch: 21 January)

Event Time Altitude Azimuth Distance (km) Brightness Sun altitude
Rises 06:00:48 0° 260° (W) 3,351 - -12.8°
Exits shadow 06:02:49 - 253° (WSW) 2,663 11.8 -12.5°
Reaches altitude 10° 06:02:58 10° 252° (WSW) 2,615 11.8 -12.4°
Maximum altitude 06:08:47 43° 182° (S) 1,720 11.4 -11.4°
Drops below altitude 10° 06:18:43 10° 116° (ESE) 4,440 15.1 -9.7°
Sets 06:23:35 0° 111° (ESE) 5,991 16.6 -8.9°
